Weather History for Olathe New Century, KS

Change the Weather History Date:

Monday, January 7, 2013

  Actual Average Record
Temperature  
Mean Temperature 36 °F -  
Max Temperature 48 °F 37 °F 64 °F (2008)
Min Temperature 24 °F 19 °F -2 °F (2014)
Degree Days  
Heating Degree Days 29    
Moisture  
Dew Point 22 °F    
Average Humidity 63    
Maximum Humidity 77    
Minimum Humidity 39    
Precipitation  
Precipitation 0.00 in - - ()
Sea Level Pressure  
Sea Level Pressure 30.18 in    
Wind  
Wind Speed 11 mph (South)    
Max Wind Speed 23 mph    
Max Gust Speed 29 mph    
Visibility 10 miles    
Events      
Averages and records for this station are not official NWS values.
T = Trace of Precipitation, MM = Missing Value Source: NWS Daily Summary

Daily Weather History Graph

Daily Weather History Graph

Search for Another Location

Airport:

Trip Planner

Search our weather history database for the weather conditions in past years. The results will help you decide how hot, cold, wet, or windy it might be!

Date:

Astronomy

Jan. 07, 2013 Rise Set
Actual Time 7:38 AM CST 5:14 PM CST
Civil Twilight 7:08 AM CST 5:43 PM CST
Nautical Twilight 6:35 AM CST 6:16 PM CST
Astronomical Twilight 6:03 AM CST 6:48 PM CST
Moon 3:03 AM CST (1/7) 1:25 PM CST (1/7)
Length of Visible Light 10h 35m
Length of Day
9h 35m
Waning Crescent, 22% of the Moon is Illuminated
Jan 7
Waning Crescent
Jan 11
New
Jan 18
First Quarter
Jan 26
Full
Feb 3
Last Quarter

Hourly Weather History & Observations

Time (CST) Temp. Windchill Dew Point Humidity Pressure Visibility Wind Dir Wind Speed Gust Speed Precip Events Conditions
12:53 AM 27.0 °F 17.3 °F 19.0 °F 72% 30.30 in 10.0 mi South 10.4 mph - N/A   Clear
1:53 AM 27.0 °F 18.0 °F 19.0 °F 72% 30.29 in 10.0 mi South 9.2 mph - N/A   Clear
2:53 AM 26.1 °F 18.4 °F 19.0 °F 75% 30.28 in 10.0 mi South 6.9 mph - N/A   Clear
3:53 AM 26.1 °F 16.8 °F 19.0 °F 75% 30.27 in 10.0 mi South 9.2 mph - N/A   Clear
4:53 AM 24.1 °F 16.0 °F 18.0 °F 77% 30.26 in 10.0 mi South 6.9 mph - N/A   Clear
5:53 AM 24.1 °F 14.4 °F 18.0 °F 77% 30.25 in 10.0 mi South 9.2 mph - N/A   Clear
6:53 AM 24.1 °F 15.2 °F 18.0 °F 77% 30.26 in 10.0 mi South 8.1 mph - N/A   Clear
7:53 AM 24.1 °F 16.0 °F 18.0 °F 77% 30.26 in 10.0 mi South 6.9 mph - N/A   Clear
8:53 AM 28.9 °F 20.4 °F 21.0 °F 72% 30.26 in 10.0 mi South 9.2 mph - N/A   Clear
9:53 AM 35.1 °F 25.5 °F 23.0 °F 61% 30.25 in 10.0 mi South 15.0 mph - N/A   Clear
10:53 AM 39.9 °F 31.8 °F 24.1 °F 53% 30.24 in 10.0 mi South 15.0 mph - N/A   Clear
11:53 AM 45.0 °F 37.6 °F 23.0 °F 42% 30.19 in 10.0 mi SSW 17.3 mph 25.3 mph N/A   Clear
1:53 PM 48.0 °F - 24.1 °F 39% 30.12 in 10.0 mi South 23.0 mph 28.8 mph N/A   Clear
2:53 PM 46.0 °F 40.6 °F 24.1 °F 42% 30.12 in 10.0 mi SSW 11.5 mph 21.9 mph N/A   Clear
3:53 PM 46.0 °F 39.3 °F 24.1 °F 42% 30.11 in 10.0 mi South 16.1 mph - N/A   Clear
4:53 PM 41.0 °F 36.4 °F 25.0 °F 53% 30.10 in 10.0 mi South 6.9 mph - N/A   Clear
5:53 PM 37.9 °F 30.9 °F 25.0 °F 60% 30.10 in 10.0 mi South 10.4 mph - N/A   Clear
6:53 PM 39.0 °F 31.8 °F 25.0 °F 57% 30.09 in 10.0 mi South 11.5 mph - N/A   Clear
7:53 PM 39.0 °F 31.4 °F 25.0 °F 57% 30.08 in 10.0 mi South 12.7 mph - N/A   Clear
8:53 PM 37.9 °F 30.9 °F 25.0 °F 60% 30.08 in 10.0 mi South 10.4 mph - N/A   Clear
9:53 PM 37.0 °F 29.8 °F 26.1 °F 65% 30.07 in 10.0 mi South 10.4 mph - N/A   Clear
10:53 PM 36.0 °F 28.5 °F 26.1 °F 67% 30.06 in 10.0 mi South 10.4 mph - N/A   Clear
11:53 PM 36.0 °F 27.5 °F 27.0 °F 70% 30.05 in 10.0 mi South 12.7 mph - N/A   Clear